Météo

Actualisé à 12h00, Lille

icon

T : 9 °C / H : 87 %
Pression : 1010 Hpa
Vent de nord-ouest : 30 Km/h
Faible Pluie
Peu de nuages à 1300 pieds
Nuages épars à 2400 pieds

2024/04/16 11:00 LFQQ 161100Z AUTO 31016KT 9999 -RA FEW013 SCT024 BKN030 09/07 Q1010 TEMPO 2000 SHRAGS SCT009 BKN013 BKN020CB BECMG 33018G30KT

Mots clés

Internet web infographiste flyers illustrateur graphiste webmaster PAO assistance informatique logo image invitation affiche création réalisation conception site vitrine voeux carte visite publication publicité impression plaquette charte graphique identité visuelle maintenance freelance


CSS Valide ! Valid HTML 5.0

Bienvenue

Ce site a été réalisé afin de vous faire découvrir mon métier, mes compétences, mon savoir-faire et bien entendu mes services. Vous s'y trouverez également une selection de logiciels et de liens divers et variés.



Infographiste - Web Designer

Je réalise votre logo - votre charte graphique.
Je peux également réaliser votre affiche - flyer - plaquette commerciale - catalogue publicitaire - espace pub - carte d'invitation - carte de visite - carte de fidélité - pochette cd-room ou encore votre présentation cd-room - site internet - maquette d'objet publicitaire.

Si mes services vous intéressent n'hésitez pas à me contacter.